Wind_Speed
7 8 8 8 7 9 17 19 14 7 5 3 2 4 9 6 10 4 10 10 21 13 12 11 12 15 15 16 15 12 11 11 11 12 13 14 15 17 19 19 18 18 17 19 20 20 20 21 22
9 9 8 8 9 18 17 9 6 5 8 2 4 4 5 3 3 9 1 8 17 12 11 11 12 13 14 15 13 10 10 9 10 11 13 15 16 16 17 20 20 19 19 19 20 21 22 21 22
9 13 6 6 14 21 21 10 25 12 9 6 3 4 8 2 3 1 11 15 18 15 14 11 12 13 15 15 12 10 9 9 10 11 14 15 16 17 19 20 22 20 20 20 20 20 20 22 22
10 11 10 14 19 23 19 9 4 4 8 5 5 6 4 12 10 11 11 15 19 18 18 14 13 14 14 13 8 8 8 9 11 12 14 16 17 18 20 22 24 22 18 19 20 20 19 19 22
12 9 15 17 22 19 16 13 4 8 8 9 8 4 5 7 12 14 16 12 16 21 20 19 17 15 14 12 7 8 8 9 11 12 14 15 17 19 21 22 25 25 20 18 18 18 16 18 21
13 11 15 21 22 20 18 10 15 12 12 13 11 8 6 11 6 6 14 17 17 15 24 20 20 19 16 16 12 10 11 11 12 12 14 15 18 21 23 23 25 27 22 18 18 17 17 19 22
18 15 21 21 24 23 14 10 14 15 10 8 7 9 4 5 11 16 22 18 17 18 24 22 23 22 20 18 17 15 15 15 14 14 15 17 19 22 25 25 25 26 24 20 18 18 18 18 19
18 19 25 27 29 25 19 15 13 14 14 6 5 7 12 13 11 16 11 13 21 22 22 27 23 23 25 21 21 21 21 19 17 17 18 20 21 22 24 26 25 25 23 22 20 19 19 20 20
18 26 30 27 26 24 21 19 15 18 13 19 14 14 15 16 22 22 19 15 16 19 30 34 36 25 26 24 23 24 26 25 24 22 22 23 23 24 25 27 27 25 25 23 21 21 20 20 19
27 34 34 25 26 27 23 22 23 19 15 21 15 18 20 17 21 17 19 21 22 21 22 37 37 38 25 30 26 25 27 29 29 26 25 25 25 25 26 31 31 28 27 25 25 23 21 19 19
29 41 31 31 28 27 29 29 25 27 30 32 28 25 27 24 24 26 26 22 24 26 26 28 40 40 29 30 32 27 27 30 29 28 27 26 27 29 28 27 32 31 30 26 27 25 22 21 21
35 38 34 32 33 35 34 33 36 34 32 29 32 31 27 27 25 26 28 25 27 28 32 35 41 39 33 38 37 27 27 30 31 30 29 29 30 29 27 27 30 30 31 28 26 25 23 23 23
39 37 35 36 36 37 38 41 41 41 38 39 35 34 34 34 32 28 29 30 30 35 37 37 35 34 32 36 32 31 29 30 32 32 30 32 30 28 30 30 29 29 30 29 28 26 22 22 23
37 38 39 40 41 40 42 45 43 44 40 40 37 38 37 36 32 31 32 31 34 37 41 30 30 32 35 37 30 29 29 33 34 31 29 36 31 29 30 30 30 28 28 27 26 25 23 21 22
40 44 46 48 45 48 45 54 50 43 40 42 41 40 37 36 34 30 31 29 37 41 37 28 30 41 43 33 28 31 31 34 35 30 31 36 33 29 30 30 31 31 28 25 25 24 22 22 24
42 44 55 53 51 53 45 60 50 42 38 38 36 37 38 32 29 31 35 33 39 37 32 26 26 28 28 29 29 32 33 33 31 34 38 34 32 30 30 30 29 29 27 25 24 24 22 22 24
46 47 51 53 50 46 45 52 48 41 39 41 38 34 35 35 35 32 28 35 35 36 35 26 27 31 29 31 31 33 35 31 34 36 35 34 32 30 30 29 29 27 25 24 23 21 21 23 21
43 48 55 47 42 39 45 46 47 42 40 42 43 33 35 37 36 34 30 32 37 37 33 24 25 31 30 28 29 30 31 31 32 32 30 32 32 31 30 30 26 25 24 23 20 22 21 21 18
42 48 49 45 41 40 40 44 47 42 40 42 40 40 37 35 35 37 33 31 36 32 27 24 26 27 28 26 28 30 29 27 27 27 28 28 29 28 30 27 25 24 22 19 19 21 21 19 15
48 47 46 45 39 36 37 42 46 41 37 36 37 38 35 36 33 27 29 34 32 31 27 24 24 24 23 22 24 25 26 25 23 23 25 25 27 27 25 25 24 22 20 18 19 21 17 13 14
46 48 47 47 36 40 37 42 42 43 43 40 37 40 36 34 41 39 33 36 31 28 23 23 21 20 22 18 20 22 20 18 17 19 24 25 25 23 24 23 21 18 17 16 15 11 11 11 13
49 45 39 39 35 38 32 29 45 42 38 36 37 34 34 33 33 31 26 33 31 25 19 16 18 18 15 18 19 14 12 14 18 20 23 25 25 23 22 17 14 11 13 11 12 11 10 11 12
57 33 37 38 41 37 35 29 60 32 30 29 27 27 28 30 27 26 32 30 27 22 19 18 17 14 15 17 12 11 11 15 18 19 21 20 19 22 17 12 10 10 9 8 8 9 9 10 11
36 37 38 39 38 27 44 34 60 38 36 32 29 30 29 23 21 19 33 28 27 23 18 14 13 12 14 13 11 12 13 16 17 18 17 17 15 14 12 9 8 8 6 7 7 8 9 10 10
40 38 26 25 24 23 32 35 50 38 32 27 29 28 27 24 20 31 30 26 23 21 17 14 10 12 12 10 11 14 12 13 14 15 14 13 15 12 7 6 6 5 5 5 6 7 8 9 12
46 46 29 25 17 21 36 41 45 41 37 31 24 23 18 18 23 29 26 26 20 18 15 11 11 11 10 10 11 11 11 12 12 10 11 10 11 6 4 5 3 2 3 6 8 8 8 11 10
43 52 54 36 33 29 29 31 39 36 26 22 17 18 14 25 23 25 24 22 17 16 11 9 11 11 9 9 9 9 10 11 9 8 9 6 6 3 2 1 1 4 10 10 7 4 5 7 11
46 39 45 43 25 24 26 33 27 13 18 16 18 16 21 19 23 22 24 20 14 14 10 10 11 8 7 8 9 9 9 6 5 5 5 4 4 3 2 3 5 9 9 6 3 2 5 4 4
44 48 48 42 37 16 15 21 20 9 11 9 13 20 23 28 25 20 22 16 15 13 10 10 9 6 6 8 9 8 6 5 3 5 3 2 2 1 3 5 5 6 6 3 1 2 3 5 4
45 41 42 42 34 36 25 25 8 9 16 11 9 17 25 28 24 21 20 14 16 13 10 8 5 6 5 7 6 5 4 3 3 2 1 1 1 3 6 6 6 5 4 3 1 1 2 4 3
Wind_Direction
193 183 192 195 201 232 249 262 278 267 271 226 343 330 325 340 354 8 331 314 302 313 319 326 338 346 341 346 347 343 345 354 6 6 7 4 359 351 346 338 325 309 298 285 277 270 257 256 253
182 181 181 186 241 252 252 263 332 238 109 315 324 303 309 284 344 46 278 290 292 304 313 314 323 336 333 341 343 336 331 334 346 352 355 355 355 352 348 344 335 319 306 294 283 273 268 257 254
190 170 163 257 247 249 268 269 241 242 264 288 300 284 286 216 204 225 286 311 291 304 303 303 304 322 327 333 342 331 323 319 327 336 340 340 341 344 345 345 339 326 312 303 293 283 274 268 258
185 183 219 234 253 256 277 243 109 211 272 279 298 287 309 218 231 279 312 312 290 314 318 299 297 304 316 325 345 342 338 328 321 322 328 332 336 336 338 341 341 332 315 307 300 291 283 273 267
210 184 247 254 259 268 274 275 261 281 289 281 284 281 284 248 264 262 295 307 299 296 322 311 297 294 298 309 322 326 319 317 310 314 322 329 340 339 337 337 338 334 321 305 302 295 286 283 280
217 219 246 252 258 262 267 284 280 277 283 283 273 283 287 306 171 303 308 319 310 266 291 312 301 294 287 293 291 294 296 293 292 307 320 329 339 342 340 335 335 335 324 308 303 298 286 272 275
213 228 245 254 264 269 269 280 275 278 281 306 268 239 274 225 264 298 292 310 310 299 263 303 296 289 283 279 282 285 280 284 290 302 311 321 329 335 339 336 333 334 323 311 299 297 290 284 279
224 239 252 253 261 264 273 280 276 270 266 343 292 246 286 266 320 334 327 302 309 302 283 283 299 291 281 274 272 278 280 283 288 296 305 311 319 325 332 333 330 333 323 314 302 295 288 283 277
232 246 248 249 254 261 266 290 293 269 260 264 278 275 276 287 275 283 292 286 285 289 289 281 286 286 281 271 265 267 276 284 287 291 299 306 315 317 321 325 328 330 329 314 308 296 286 281 276
224 232 236 243 253 267 265 269 271 276 272 267 267 282 285 281 288 289 284 285 286 282 287 290 276 284 281 280 268 264 268 275 280 287 294 301 308 311 316 328 330 328 329 316 308 299 289 279 275
232 236 242 245 252 262 266 268 274 279 271 270 279 278 280 281 285 276 282 282 282 277 276 280 289 272 270 287 275 262 267 273 274 282 290 296 301 306 318 322 323 325 326 317 310 301 288 278 273
239 245 247 253 254 259 261 267 276 278 282 278 276 276 280 282 276 279 280 282 284 283 279 274 277 269 266 286 281 274 271 272 278 279 285 294 298 306 310 315 319 318 319 315 309 305 296 291 288
238 244 249 254 255 259 264 268 274 275 278 275 277 275 273 282 282 279 283 282 285 285 284 285 272 267 266 279 275 277 274 272 276 277 283 290 295 302 304 312 316 314 314 310 307 307 299 289 286
242 250 251 254 257 259 263 268 270 272 276 274 276 274 277 273 278 281 275 280 291 290 291 294 262 263 267 273 275 278 278 276 274 279 291 292 291 299 302 307 309 308 305 299 297 297 292 284 283
250 254 254 250 254 259 264 268 264 271 274 272 269 272 276 273 277 273 267 282 286 289 289 281 252 253 258 261 271 273 275 273 273 276 278 281 286 295 299 303 307 309 303 297 296 293 284 282 285
249 250 254 251 255 257 259 265 267 265 268 270 272 272 273 273 269 264 271 282 289 299 293 269 270 271 261 266 273 272 272 270 269 266 268 275 285 293 297 300 304 302 298 295 291 286 278 279 276
238 246 249 253 249 255 254 264 267 265 264 266 268 274 271 262 270 271 278 286 295 293 288 265 270 269 267 271 275 273 273 271 263 262 269 278 284 291 294 298 303 297 294 292 287 282 276 279 263
227 234 241 252 251 253 253 257 265 265 263 266 264 263 269 262 273 268 276 280 285 285 289 282 274 270 271 272 273 271 269 266 267 261 268 277 288 293 299 303 299 295 291 288 283 281 277 271 257
237 241 246 253 254 253 256 260 264 266 265 263 264 267 270 268 270 271 276 287 278 282 279 273 270 271 271 268 275 278 273 271 263 265 271 279 287 294 299 299 296 291 287 281 280 277 277 261 244
236 245 250 256 254 257 260 261 265 260 259 263 265 265 262 268 270 276 279 277 273 275 272 265 265 262 268 276 278 276 271 266 262 267 274 283 292 300 298 297 294 289 283 280 277 275 266 239 240
238 239 244 250 257 259 263 268 268 264 263 264 262 263 272 270 271 262 271 267 267 273 268 261 259 271 275 283 283 273 267 267 277 281 288 292 302 301 300 299 292 284 280 280 274 247 236 237 243
239 235 243 250 252 256 257 269 264 264 262 262 263 264 270 268 273 267 264 257 263 264 256 257 268 276 281 293 276 259 261 262 270 281 292 305 303 303 304 299 293 285 276 263 255 246 241 235 231
239 238 242 247 251 259 257 258 265 263 264 262 267 266 266 271 263 254 260 250 253 250 258 269 264 266 286 276 257 257 263 267 282 291 291 293 297 303 301 292 298 286 270 260 252 248 242 230 222
242 239 245 250 254 248 248 244 263 261 263 269 270 266 263 257 259 252 235 235 253 248 264 254 256 281 273 259 260 267 275 281 291 291 296 301 309 306 291 295 285 282 269 265 255 238 224 210 204
229 233 236 238 238 241 245 244 253 262 263 267 269 266 256 246 246 233 228 235 251 249 246 246 266 272 258 258 273 278 285 282 282 290 295 306 308 305 293 294 292 279 277 261 231 201 194 197 185
223 227 225 223 226 241 244 252 259 254 265 265 279 253 238 235 228 217 228 242 243 242 234 246 265 257 258 274 275 282 279 278 288 286 303 313 315 312 278 306 298 278 230 156 149 160 175 182 192
227 221 224 241 241 245 253 248 253 256 251 249 264 233 222 198 216 222 235 232 239 230 231 248 257 259 272 273 284 278 277 290 295 297 317 312 320 322 318 273 152 137 130 131 129 162 197 213 216
227 222 222 230 232 246 237 242 254 209 230 247 227 209 200 218 217 234 222 221 230 222 229 248 258 268 272 284 283 272 285 280 299 325 324 316 312 318 98 176 154 152 144 128 121 85 144 177 156
223 226 221 231 226 236 246 262 277 223 201 197 218 211 206 209 213 237 210 216 221 215 234 249 266 266 278 295 281 287 291 302 4 336 342 351 14 72 139 157 166 158 159 189 210 155 145 173 170
225 220 222 218 219 226 243 240 222 199 222 224 202 205 198 208 217 222 205 219 212 218 236 253 263 265 292 298 286 295 309 341 17 8 152 69 199 153 134 168 166 165 182 207 215 55 172 152 173
Height
3161 3162 3164 3165 3170 3165 3161 3159 3156 3157 3159 3158 3159 3161 3162 3163 3163 3165 3161 3159 3159 3162 3161 3161 3160 3158 3157 3156 3154 3153 3152 3151 3151 3150 3149 3148 3146 3144 3143 3141 3138 3137 3136 3136 3136 3137 3137 3138 3139
3160 3162 3164 3165 3166 3163 3158 3158 3158 3158 3153 3160 3159 3160 3162 3163 3162 3162 3163 3162 3157 3160 3160 3159 3158 3157 3155 3154 3153 3151 3150 3150 3149 3148 3147 3146 3145 3143 3142 3140 3137 3134 3133 3133 3132 3132 3132 3134 3134
3161 3161 3164 3164 3162 3159 3156 3157 3155 3157 3160 3159 3158 3159 3159 3162 3160 3161 3162 3161 3157 3159 3158 3157 3156 3155 3154 3153 3151 3150 3150 3148 3147 3147 3146 3145 3144 3141 3139 3137 3135 3132 3130 3128 3128 3129 3129 3129 3130
3160 3161 3164 3159 3158 3155 3156 3158 3155 3157 3158 3157 3157 3159 3159 3157 3159 3160 3160 3159 3154 3156 3157 3154 3153 3153 3152 3151 3150 3149 3147 3147 3146 3144 3143 3142 3140 3139 3137 3135 3133 3130 3128 3126 3124 3124 3125 3125 3126
3159 3161 3162 3159 3157 3155 3154 3154 3151 3156 3156 3157 3156 3158 3157 3156 3155 3157 3158 3157 3155 3149 3153 3152 3151 3150 3149 3148 3147 3146 3145 3144 3144 3142 3141 3140 3138 3136 3134 3133 3130 3127 3125 3124 3123 3121 3120 3121 3122
3157 3158 3158 3156 3154 3154 3153 3152 3154 3154 3155 3155 3156 3157 3158 3154 3153 3154 3154 3155 3154 3150 3145 3150 3148 3147 3145 3145 3144 3143 3143 3141 3141 3140 3138 3137 3135 3133 3132 3130 3128 3125 3122 3121 3120 3120 3119 3118 3118
3153 3157 3155 3154 3152 3150 3152 3153 3155 3154 3154 3153 3153 3155 3158 3152 3151 3153 3152 3151 3152 3151 3143 3146 3146 3144 3143 3142 3142 3141 3140 3139 3139 3137 3136 3135 3133 3131 3129 3127 3126 3122 3120 3118 3118 3116 3116 3115 3115
3152 3156 3153 3152 3150 3149 3150 3152 3153 3153 3153 3151 3152 3154 3155 3154 3150 3148 3150 3151 3145 3143 3141 3135 3143 3141 3140 3139 3139 3138 3137 3137 3136 3135 3134 3133 3130 3128 3126 3125 3124 3121 3118 3116 3114 3113 3112 3112 3111
3152 3152 3148 3148 3149 3147 3149 3148 3150 3150 3148 3151 3152 3152 3152 3153 3153 3150 3150 3151 3151 3150 3140 3130 3129 3138 3136 3135 3135 3134 3133 3134 3133 3132 3131 3129 3127 3125 3123 3123 3120 3118 3114 3112 3110 3109 3108 3107 3107
3145 3143 3140 3144 3145 3145 3146 3147 3148 3150 3147 3149 3148 3149 3148 3149 3146 3147 3147 3147 3146 3146 3147 3132 3126 3121 3132 3131 3130 3129 3129 3129 3129 3128 3127 3125 3123 3122 3119 3113 3112 3112 3110 3108 3106 3105 3104 3103 3103
3139 3131 3138 3140 3142 3143 3143 3142 3143 3143 3144 3146 3144 3145 3145 3144 3143 3143 3142 3142 3141 3140 3139 3140 3126 3120 3118 3125 3124 3126 3125 3124 3123 3124 3123 3121 3120 3117 3113 3111 3108 3106 3105 3104 3101 3099 3099 3099 3099
3136 3130 3134 3136 3137 3138 3137 3138 3137 3138 3137 3140 3140 3139 3139 3137 3137 3137 3137 3136 3134 3133 3131 3130 3123 3118 3116 3116 3116 3120 3120 3120 3119 3119 3118 3117 3115 3112 3110 3108 3104 3101 3099 3098 3097 3094 3093 3092 3093
3123 3127 3130 3131 3132 3132 3133 3131 3131 3131 3134 3133 3132 3132 3132 3132 3130 3131 3131 3130 3127 3125 3122 3120 3113 3114 3113 3114 3112 3111 3113 3113 3113 3113 3113 3113 3110 3108 3106 3103 3101 3097 3094 3092 3091 3089 3089 3088 3087
3122 3123 3122 3124 3124 3125 3126 3123 3126 3126 3128 3126 3126 3125 3125 3126 3125 3124 3124 3122 3120 3116 3113 3112 3108 3108 3108 3111 3109 3107 3106 3105 3105 3105 3105 3106 3105 3103 3100 3098 3097 3095 3093 3091 3088 3086 3085 3084 3084
3116 3115 3114 3112 3117 3115 3123 3110 3115 3120 3121 3118 3119 3118 3119 3119 3118 3117 3116 3116 3112 3110 3106 3104 3103 3102 3104 3106 3105 3103 3101 3100 3099 3100 3098 3097 3099 3099 3096 3094 3090 3088 3087 3085 3082 3081 3080 3079 3079
3107 3109 3099 3103 3111 3106 3118 3095 3107 3113 3113 3110 3111 3111 3112 3111 3111 3108 3109 3108 3105 3102 3099 3097 3097 3096 3099 3100 3100 3097 3096 3096 3095 3094 3092 3092 3093 3093 3091 3089 3086 3082 3080 3079 3077 3076 3075 3076 3074
3093 3090 3089 3093 3099 3103 3105 3094 3098 3104 3104 3102 3103 3104 3104 3104 3104 3101 3104 3102 3099 3095 3092 3091 3092 3089 3093 3093 3094 3093 3090 3090 3089 3087 3087 3086 3088 3087 3085 3082 3079 3077 3075 3073 3071 3070 3071 3070 3070
3080 3083 3075 3085 3092 3095 3093 3091 3090 3095 3096 3094 3095 3095 3095 3096 3096 3094 3096 3095 3092 3088 3086 3086 3087 3085 3087 3088 3087 3086 3084 3083 3083 3083 3083 3082 3081 3080 3077 3074 3072 3071 3069 3067 3066 3066 3066 3066 3066
3077 3073 3075 3080 3085 3086 3084 3085 3080 3087 3088 3086 3086 3088 3088 3088 3089 3088 3088 3088 3083 3083 3082 3081 3082 3082 3082 3082 3082 3081 3079 3078 3078 3077 3078 3078 3077 3074 3071 3068 3066 3064 3062 3061 3061 3061 3061 3061 3063
3067 3068 3070 3073 3078 3080 3078 3074 3074 3077 3077 3078 3079 3078 3078 3080 3082 3083 3082 3078 3077 3077 3077 3077 3077 3077 3078 3077 3076 3075 3074 3073 3073 3073 3073 3074 3071 3068 3065 3063 3060 3059 3057 3057 3056 3056 3056 3057 3059
3060 3060 3064 3066 3075 3071 3072 3066 3066 3067 3068 3070 3070 3071 3072 3073 3073 3073 3076 3070 3072 3072 3071 3072 3072 3073 3073 3072 3071 3068 3069 3068 3069 3069 3067 3066 3065 3062 3060 3058 3054 3053 3053 3052 3052 3052 3053 3055 3055
3048 3055 3064 3064 3069 3060 3069 3058 3053 3059 3059 3062 3062 3064 3065 3065 3064 3066 3066 3063 3066 3067 3067 3068 3068 3068 3068 3067 3066 3065 3066 3066 3066 3065 3062 3060 3058 3057 3055 3052 3050 3049 3049 3049 3049 3050 3051 3052 3053
3033 3062 3057 3058 3058 3060 3059 3060 3021 3052 3051 3052 3055 3056 3057 3057 3058 3059 3057 3058 3061 3062 3064 3064 3064 3064 3063 3063 3063 3063 3063 3063 3062 3061 3060 3058 3056 3053 3050 3049 3047 3046 3046 3046 3047 3048 3049 3050 3052
3045 3051 3052 3053 3052 3045 3042 3055 3016 3043 3045 3046 3048 3048 3049 3051 3051 3052 3048 3054 3056 3058 3060 3060 3060 3060 3060 3060 3060 3061 3060 3059 3058 3057 3056 3054 3052 3049 3047 3046 3044 3044 3044 3045 3045 3046 3047 3049 3051
3037 3041 3041 3043 3038 3026 3041 3041 3023 3035 3037 3040 3039 3039 3041 3044 3047 3042 3045 3050 3053 3055 3056 3057 3057 3057 3057 3057 3057 3056 3057 3056 3055 3054 3052 3051 3048 3045 3044 3043 3043 3043 3042 3043 3044 3045 3046 3049 3051
3023 3028 3026 3024 3021 3025 3038 3019 3020 3026 3028 3032 3030 3031 3035 3039 3038 3038 3043 3047 3049 3051 3052 3053 3054 3055 3054 3054 3054 3054 3054 3053 3052 3051 3050 3047 3045 3043 3043 3043 3042 3042 3042 3043 3044 3045 3047 3049 3051
3012 3019 3012 3026 3022 3023 3016 3015 3014 3016 3021 3024 3024 3027 3030 3031 3032 3037 3040 3044 3046 3048 3049 3051 3052 3052 3050 3051 3051 3051 3051 3050 3048 3048 3046 3045 3044 3043 3043 3042 3042 3043 3044 3044 3045 3046 3047 3049 3050
3005 3011 3019 3015 3016 3014 3012 3012 3007 3007 3015 3016 3019 3023 3029 3028 3028 3033 3036 3041 3043 3045 3047 3049 3049 3048 3048 3048 3048 3048 3048 3047 3046 3045 3044 3044 3042 3042 3042 3043 3043 3044 3045 3046 3046 3047 3047 3048 3049
2997 2999 3003 3011 3011 3008 3011 3007 3007 3007 3010 3013 3015 3019 3024 3024 3026 3030 3035 3038 3040 3043 3045 3046 3046 3045 3046 3046 3045 3045 3045 3044 3044 3044 3043 3043 3042 3042 3043 3043 3044 3044 3046 3047 3047 3048 3048 3049 3050
2992 2992 2996 2995 2999 3006 3010 3008 3003 3005 3007 3009 3013 3016 3019 3022 3025 3029 3032 3036 3038 3042 3043 3044 3043 3043 3044 3044 3043 3043 3042 3043 3043 3043 3043 3043 3043 3043 3043 3044 3044 3045 3047 3047 3048 3049 3049 3051 3051